This is the latest recevied weather packets stored in our database for station/object LA9NKA. If no packets are shown the sender has not sent any weather packets the latest 10 day(s).
| Time | Temp. | Humidity | Pressure | Rain* | Wind** | Luminosity | Snow |
|---|---|---|---|---|---|---|---|
| 1778026102 | - | 86% | 1013.5 hPa | 0 mm | - | - | - |
| 1778022964 | - | 86% | 1013.4 hPa | 0 mm | - | - | - |
| 1778021760 | - | 86% | 1013.5 hPa | 0 mm | - | - | - |
| 1778020105 | - | 86% | 1013.5 hPa | 0 mm | - | - | - |
| 1778014843 | - | 86% | 1013.2 hPa | 0 mm | - | - | - |
| 1778013934 | - | 86% | 1013.1 hPa | 0 mm | - | - | - |
| 1778012730 | - | 86% | 1013.2 hPa | 0 mm | - | - | - |
| 1778011525 | - | 86% | 1013.2 hPa | 0 mm | - | - | - |
| 1778004338 | - | 86% | 1012.4 hPa | 0 mm | - | - | - |
| 1778003735 | - | 86% | 1012.4 hPa | 0 mm | - | - | - |
| 1778001930 | - | 86% | 1012.4 hPa | 0 mm | - | - | - |
| 1778000126 | - | 86% | 1012.3 hPa | 0 mm | - | - | - |
| 1777998954 | - | 86% | 1012.3 hPa | 0 mm | - | - | - |
| 1777994747 | - | 86% | 1012.2 hPa | 0 mm | - | - | - |
| 1777991142 | - | 86% | 1012.3 hPa | 0 mm | - | - | - |
| 1777988799 | - | 86% | 1012.4 hPa | 0.51 mm | - | - | - |
| 1777987537 | - | 86% | 1012.4 hPa | 0.51 mm | - | - | - |
| 1777986936 | - | 86% | 1012.6 hPa | 0.25 mm | - | - | - |
| 1777985189 | - | 86% | 1012.2 hPa | 0 mm | - | - | - |
| 1777978545 | - | 86% | 1012 hPa | 0 mm | - | - | - |
| 1777977944 | - | 86% | 1012 hPa | 0.25 mm | - | - | - |
| 1777975541 | - | 86% | 1011.9 hPa | 0.25 mm | - | - | - |
| 1777970183 | - | 86% | 1011.5 hPa | 0.51 mm | - | - | - |
| 1777967747 | - | 86% | 1011.6 hPa | 0 mm | - | - | - |
| 1777966602 | - | 86% | 1011.3 hPa | 0 mm | - | - | - |
* Rain latest hour (hover to see other rain measurements)
** Current wind speed in m/s (hover to see current wind gust speed)